Powrót do katalogu

STARLINK-5452

AktywnyŁącznośćVLEO
NORAD 54772·PAYLOAD·🇺🇸 United States

Wystrzelony Dec 17, 2022 z Cape Canaveral Space Force Station

Loading…

Następne Przeloty (najbliższe 24 godziny)

TLE

ŚwieżeSource: CelesTrak SupGP

Epoka: Sep 14, 2026, 20:57 UTC

1 54772C 22175Q   26257.87340278  .00048702  00000+0  14394-2 0  2573
2 54772  53.1561 246.1849 0001255  96.3039 332.8978 15.34355060    18

Śledź STARLINK-5452 w czasie rzeczywistym z AllMySat

Download on the App Store